Pardubice, Czech Republic

8:21 AM CET on December 12, 2017 (GMT +0100)
Pardubice

Weather History for LKPD - March, 2013

Change the Weather History Date:

Monday, March 11, 2013

  Actual Average Record
Temperature  
Mean Temperature 35 °F -  
Max Temperature 42 °F - - ()
Min Temperature 28 °F - - ()
Degree Days  
Heating Degree Days 30    
Moisture  
Dew Point 28 °F    
Average Humidity 83    
Maximum Humidity 100    
Minimum Humidity 69    
Precipitation  
Precipitation 0.00 in - - ()
Sea Level Pressure  
Sea Level Pressure 29.56 in    
Wind  
Wind Speed 7 mph ()    
Max Wind Speed 15 mph    
Max Gust Speed -    
Visibility 5.6 miles    
Events Rain , Snow    
T = Trace of Precipitation, MM = Missing Value Source: Averaged Metar Reports

Daily Weather History Graph

Daily Weather History Graph

Search for Another Location

Airport or City:

Trip Planner

Search our weather history database for the weather conditions in past years. The results will help you decide how hot, cold, wet, or windy it might be!

Date:

Astronomy

Mar. 11, 2013 Rise Set
Actual Time 6:19 AM CET 5:55 PM CET
Civil Twilight 5:47 AM CET 6:27 PM CET
Nautical Twilight 5:09 AM CET 7:05 PM CET
Astronomical Twilight 4:31 AM CET 7:43 PM CET
Moon 5:42 AM CET (3/11) 5:53 PM CET (3/11)
Length of Visible Light 12h 40m
Length of Day
11h 36m
Waning Crescent, 0% of the Moon is Illuminated
Mar 11
Waning Crescent
Mar 11
New
Mar 19
First Quarter
Mar 27
Full
Apr 3
Last Quarter

Hourly Weather History & Observations

Time (CET) Temp. Windchill Dew Point Humidity Pressure Visibility Wind Dir Wind Speed Gust Speed Precip Events Conditions
12:00 AM 41.0 °F 39.0 °F 39.2 °F 93% 29.44 in 6.2 mi East 3.5 mph - N/A   Mostly Cloudy
1:00 AM 39.2 °F 35.9 °F 39.2 °F 100% 29.44 in 6.2 mi ESE 4.6 mph - N/A   Mostly Cloudy
2:00 AM 39.2 °F - 39.2 °F 100% 29.44 in - Calm Calm - N/A   Clear
4:00 AM 42.8 °F 40.1 °F 41.0 °F 93% 29.42 in 6.2 mi WSW 4.6 mph - N/A   Overcast
5:00 AM 39.2 °F 31.2 °F 37.4 °F 93% 29.44 in 4.3 mi WNW 13.8 mph - N/A Rain Rain Showers
6:00 AM 33.8 °F 23.9 °F 30.2 °F 87% 29.47 in 3.1 mi West 15.0 mph - N/A Rain Rain
6:08 AM 32.0 °F 22.5 °F 30.2 °F 93% 29.47 in 1.9 mi West 12.7 mph - N/A Rain Rain
6:42 AM 32.0 °F 23.6 °F 30.2 °F 93% 29.50 in 3.1 mi West 10.4 mph - N/A Snow Light Snow
7:00 AM 32.0 °F 22.5 °F 28.4 °F 87% 29.50 in 5.0 mi West 12.7 mph - N/A   Overcast
9:00 AM 30.2 °F 19.8 °F 24.8 °F 80% 29.56 in 6.2 mi WNW 13.8 mph - N/A   Mostly Cloudy
10:00 AM 30.2 °F 19.3 °F 24.8 °F 80% 29.56 in - WNW 15.0 mph - N/A   Clear
11:00 AM 30.2 °F 20.2 °F 23.0 °F 75% 29.59 in 6.2 mi WNW 12.7 mph - N/A   Overcast
12:00 PM 30.2 °F 20.2 °F 23.0 °F 75% 29.59 in 6.2 mi West 12.7 mph - N/A   Overcast
1:00 PM 30.2 °F 21.3 °F 23.0 °F 75% 29.62 in 6.2 mi WNW 10.4 mph - N/A   Overcast
2:00 PM 32.0 °F 22.5 °F 23.0 °F 69% 29.62 in 6.2 mi West 12.7 mph - N/A   Overcast
3:00 PM 32.0 °F 23.6 °F 23.0 °F 69% 29.62 in 6.2 mi West 10.4 mph - N/A   Overcast
4:00 PM 30.2 °F 22.6 °F 23.0 °F 75% 29.62 in 6.2 mi WNW 8.1 mph - N/A   Overcast
5:00 PM 30.2 °F 22.6 °F 23.0 °F 75% 29.62 in 6.2 mi West 8.1 mph - N/A   Overcast
6:00 PM 30.2 °F 23.4 °F 23.0 °F 75% 29.62 in 6.2 mi WNW 6.9 mph - N/A   Overcast
7:00 PM 28.4 °F 22.2 °F 23.0 °F 80% 29.65 in 6.2 mi WNW 5.8 mph - N/A   Overcast
8:00 PM 28.4 °F 23.3 °F 23.0 °F 80% 29.65 in 6.2 mi West 4.6 mph - N/A   Overcast
9:00 PM 28.4 °F 22.2 °F 23.0 °F 80% 29.65 in 6.2 mi West 5.8 mph - N/A   Overcast
10:00 PM 28.4 °F 21.2 °F 23.0 °F 80% 29.65 in 6.2 mi West 6.9 mph - N/A   Overcast
11:00 PM 28.4 °F 21.2 °F 23.0 °F 80% 29.65 in 6.2 mi West 6.9 mph - N/A   Overcast